When you browse on this site, cookies collect data to enhance your experience and personalize the content and advertising you see.
Visit our Privacy Policy to learn more. By continuing to use the site, you agree to this use of cookies and data.
  • In Hungary
  • List of Countries
  • For 7 days
  • Water Temperature
  • Satellite Maps
  • Weather Map
  • News
  • Weather Widgets
  • user-avatar
    Login

    Hourly Weather Lambaréné

    Today, 17 January, Thursday

    Time Temperature Precipitation Wind Pressure Humidity
    00:00 +27°C° 0 mm 1 mps 753 mmHg 94%
    01:00 +27°C° 0 mm 1 mps 753 mmHg 94%
    02:00 +26°C° 0 mm 1 mps 753 mmHg 94%
    03:00 +26°C° 0 mm 1 mps 753 mmHg 95%
    04:00 +26°C° 0 mm 1 mps 753 mmHg 95%
    05:00 +24°C° 0 mm 0 mps 753 mmHg 95%
    06:00 +24°C° 0 mm 0 mps 753 mmHg 95%
    07:00 +25°C° 0 mm 0 mps 754 mmHg 93%
    08:00 +27°C° 0 mm 0 mps 754 mmHg 83%
    09:00 +31°C° 0 mm 1 mps 754 mmHg 74%
    10:00 +33°C° 0 mm 1 mps 754 mmHg 64%
    11:00 +34°C° 0 mm 1 mps 753 mmHg 60%
    12:00 +35°C° 0 mm 1 mps 753 mmHg 56%
    13:00 +36°C° 0 mm 1 mps 752 mmHg 52%
    14:00 +34°C° 1 mm 1 mps 752 mmHg 59%
    15:00 +34°C° 1 mm 2 mps 751 mmHg 65%
    16:00 +32°C° 1 mm 2 mps 751 mmHg 72%
    17:00 +31°C° 0.4 mm 2 mps 751 mmHg 78%
    18:00 +29°C° 0.4 mm 2 mps 752 mmHg 84%
    19:00 +28°C° 0.4 mm 2 mps 752 mmHg 89%
    20:00 +27°C° 1.3 mm 1 mps 753 mmHg 90%
    21:00 +27°C° 1.3 mm 1 mps 754 mmHg 91%
    22:00 +27°C° 1.3 mm 1 mps 754 mmHg 91%
    23:00 +26°C° 0.2 mm 1 mps 754 mmHg 92%

    Tomorrow, 18 January, Friday

    Time Temperature Precipitation Wind Pressure Humidity
    00:00 +26°C° 0.2 mm 1 mps 754 mmHg 92%
    01:00 +26°C° 0.2 mm 1 mps 754 mmHg 92%
    02:00 +26°C° 0 mm 1 mps 754 mmHg 93%
    03:00 +26°C° 0 mm 1 mps 753 mmHg 94%
    04:00 +25°C° 0 mm 1 mps 753 mmHg 94%
    05:00 +26°C° 0 mm 1 mps 753 mmHg 94%
    06:00 +24°C° 0 mm 0 mps 753 mmHg 94%
    07:00 +24°C° 0 mm 0 mps 754 mmHg 94%
    08:00 +26°C° 0 mm 0 mps 754 mmHg 84%
    09:00 +30°C° 0 mm 1 mps 754 mmHg 74%
    10:00 +32°C° 0 mm 1 mps 755 mmHg 64%
    11:00 +32°C° 0 mm 1 mps 754 mmHg 62%
    12:00 +33°C° 0 mm 1 mps 754 mmHg 59%
    13:00 +34°C° 0 mm 1 mps 753 mmHg 56%
    14:00 +33°C° 0.9 mm 1 mps 753 mmHg 62%
    15:00 +32°C° 0.9 mm 2 mps 752 mmHg 69%
    16:00 +31°C° 0.9 mm 2 mps 752 mmHg 75%
    17:00 +30°C° 0.9 mm 2 mps 752 mmHg 80%
    18:00 +28°C° 0.9 mm 2 mps 753 mmHg 86%
    19:00 +27°C° 0.9 mm 1 mps 753 mmHg 91%
    20:00 +27°C° 0.5 mm 1 mps 754 mmHg 92%
    21:00 +26°C° 0.5 mm 1 mps 755 mmHg 93%
    22:00 +26°C° 0.5 mm 1 mps 755 mmHg 94%
    23:00 +26°C° 0.5 mm 1 mps 755 mmHg 94%

    Day after tomorrow, 19 January, Saturday

    Time Temperature Precipitation Wind Pressure Humidity
    00:00 +26°C° 0.5 mm 1 mps 755 mmHg 95%
    01:00 +26°C° 0.5 mm 1 mps 754 mmHg 95%
    02:00 +26°C° 0 mm 1 mps 754 mmHg 96%
    03:00 +25°C° 0 mm 1 mps 754 mmHg 96%
    04:00 +25°C° 0 mm 1 mps 753 mmHg 97%
    05:00 +25°C° 0 mm 1 mps 754 mmHg 96%
    06:00 +23°C° 0 mm 0 mps 754 mmHg 96%
    07:00 +23°C° 0 mm 0 mps 754 mmHg 96%
    08:00 +26°C° 0 mm 0 mps 754 mmHg 85%
    09:00 +28°C° 0 mm 0 mps 755 mmHg 75%
    10:00 +30°C° 0 mm 0 mps 755 mmHg 65%
    11:00 +34°C° 0 mm 1 mps 754 mmHg 59%
    12:00 +35°C° 0 mm 1 mps 754 mmHg 52%
    13:00 +36°C° 0 mm 1 mps 753 mmHg 46%
    14:00 +36°C° 0 mm 1 mps 753 mmHg 47%
    15:00 +35°C° 0 mm 1 mps 752 mmHg 48%
    16:00 +35°C° 0 mm 1 mps 751 mmHg 49%
    17:00 +34°C° 0 mm 2 mps 752 mmHg 57%
    18:00 +32°C° 0 mm 2 mps 752 mmHg 64%
    19:00 +30°C° 0 mm 2 mps 753 mmHg 72%
    20:00 +29°C° 0.1 mm 2 mps 753 mmHg 77%
    21:00 +28°C° 0.1 mm 2 mps 754 mmHg 82%
    22:00 +28°C° 0.1 mm 2 mps 755 mmHg 88%
    23:00 +27°C° 0 mm 2 mps 755 mmHg 89%

    20 January, Sunday

    Time Temperature Precipitation Wind Pressure Humidity
    00:00 +27°C° 0 mm 1 mps 754 mmHg 91%
    01:00 +27°C° 0 mm 1 mps 754 mmHg 93%
    02:00 +26°C° 0 mm 1 mps 754 mmHg 94%
    03:00 +26°C° 0 mm 1 mps 754 mmHg 95%
    04:00 +26°C° 0 mm 1 mps 753 mmHg 96%
    05:00 +26°C° 0 mm 1 mps 754 mmHg 95%
    06:00 +26°C° 0 mm 1 mps 754 mmHg 94%
    07:00 +26°C° 0 mm 1 mps 754 mmHg 94%
    08:00 +28°C° 0.1 mm 1 mps 755 mmHg 87%
    09:00 +29°C° 0.1 mm 1 mps 755 mmHg 81%
    10:00 +30°C° 0.1 mm 1 mps 755 mmHg 74%
    11:00 +31°C° 0 mm 1 mps 755 mmHg 68%
    12:00 +32°C° 0 mm 1 mps 754 mmHg 63%
    13:00 +34°C° 0 mm 1 mps 753 mmHg 57%
    14:00 +34°C° 0.3 mm 2 mps 753 mmHg 60%
    15:00 +34°C° 0.3 mm 2 mps 752 mmHg 63%
    16:00 +32°C° 0.3 mm 2 mps 752 mmHg 66%
    17:00 +30°C° 1.2 mm 2 mps 752 mmHg 74%
    18:00 +29°C° 1.2 mm 2 mps 753 mmHg 82%
    19:00 +27°C° 1.2 mm 2 mps 754 mmHg 90%
    20:00 +26°C° 0 mm 1 mps 754 mmHg 91%
    21:00 +26°C° 0 mm 1 mps 755 mmHg 92%
    22:00 +26°C° 0 mm 1 mps 755 mmHg 93%
    23:00 +26°C° 0 mm 1 mps 755 mmHg 93%

    21 January, Monday

    Time Temperature Precipitation Wind Pressure Humidity
    00:00 +25°C° 0 mm 1 mps 755 mmHg 94%
    01:00 +25°C° 0 mm 1 mps 755 mmHg 95%
    02:00 +25°C° 0 mm 1 mps 755 mmHg 95%
    03:00 +25°C° 0 mm 1 mps 754 mmHg 96%
    04:00 +25°C° 0 mm 1 mps 754 mmHg 97%
    05:00 +25°C° 0 mm 1 mps 754 mmHg 96%
    06:00 +25°C° 0 mm 1 mps 755 mmHg 96%
    07:00 +25°C° 0 mm 1 mps 755 mmHg 96%
    08:00 +27°C° 0 mm 1 mps 755 mmHg 86%
    09:00 +29°C° 0 mm 1 mps 755 mmHg 76%
    10:00 +31°C° 0 mm 2 mps 756 mmHg 65%
    11:00 +34°C° 0 mm 2 mps 755 mmHg 60%
    12:00 +34°C° 0 mm 1 mps 754 mmHg 54%
    13:00 +35°C° 0 mm 1 mps 754 mmHg 48%
    14:00 +35°C° 0.4 mm 2 mps 753 mmHg 53%
    15:00 +34°C° 0.4 mm 2 mps 752 mmHg 59%
    16:00 +32°C° 0.4 mm 2 mps 751 mmHg 65%
    17:00 +31°C° 0.8 mm 2 mps 752 mmHg 73%
    18:00 +29°C° 0.8 mm 1 mps 752 mmHg 82%
    19:00 +27°C° 0.8 mm 1 mps 753 mmHg 91%
    20:00 +27°C° 0 mm 1 mps 753 mmHg 91%
    21:00 +27°C° 0 mm 1 mps 754 mmHg 92%
    22:00 +26°C° 0 mm 1 mps 755 mmHg 93%
    23:00 +26°C° 0.1 mm 1 mps 754 mmHg 94%

    22 January, Tuesday

    Time Temperature Precipitation Wind Pressure Humidity
    00:00 +26°C° 0.1 mm 1 mps 754 mmHg 95%
    01:00 +26°C° 0.1 mm 1 mps 754 mmHg 96%
    02:00 +26°C° 0 mm 1 mps 754 mmHg 97%
    03:00 +25°C° 0 mm 1 mps 754 mmHg 97%
    04:00 +25°C° 0 mm 1 mps 753 mmHg 98%
    05:00 +25°C° 0 mm 1 mps 754 mmHg 97%
    06:00 +25°C° 0 mm 1 mps 754 mmHg 97%
    07:00 +25°C° 0 mm 1 mps 754 mmHg 97%
    08:00 +27°C° 0 mm 1 mps 755 mmHg 87%
    09:00 +29°C° 0 mm 1 mps 755 mmHg 77%
    10:00 +31°C° 0 mm 1 mps 755 mmHg 68%
    11:00 +31°C° 0 mm 1 mps 755 mmHg 67%
    12:00 +31°C° 0 mm 1 mps 754 mmHg 66%
    13:00 +29°C° 0 mm 0 mps 753 mmHg 66%
    14:00 +32°C° 0 mm 1 mps 753 mmHg 62%
    15:00 +33°C° 0 mm 1 mps 752 mmHg 58%
    16:00 +34°C° 0 mm 2 mps 752 mmHg 54%
    17:00 +32°C° 0 mm 2 mps 752 mmHg 61%
    18:00 +30°C° 0 mm 1 mps 752 mmHg 68%
    19:00 +29°C° 0 mm 1 mps 753 mmHg 75%
    20:00 +28°C° 0 mm 1 mps 753 mmHg 80%
    21:00 +28°C° 0 mm 1 mps 753 mmHg 84%
    22:00 +27°C° 0 mm 1 mps 754 mmHg 88%
    23:00 +27°C° 0 mm 1 mps 754 mmHg 90%
    Show more